IGO1106 VGHS-VECC

Flight info

Callsign IGO1106
Flight time 0h 34m
Altitude 14000
Route IKOGU1D IKOGU A462 BEMAK BEMAK2A
Aircraft A21N/M-SDE2E3FGHIJ1RWXY/LB1

Departure

Time 2026-04-23 07:12
Airport Hazrat Shahjalal International Airport (VGHS)

Arrival

Time 2026-04-23 07:46
Airport Netaji Subhash Chandra Bose International Airport (VECC)
Time Latitude Longitude Altitude Speed Heading
2026-04-23 06:48 23.84844 90.40349 27 ft 0 kts 54°
2026-04-23 07:01 23.84840 90.40341 40 ft 4 kts 55°
2026-04-23 07:02 23.84825 90.40317 39 ft 4 kts 62°
2026-04-23 07:02 23.84814 90.40290 39 ft 4 kts 75°
2026-04-23 07:02 23.84812 90.40263 38 ft 4 kts 110°
2026-04-23 07:02 23.84819 90.40251 39 ft 1 kts 143°
2026-04-23 07:05 23.84818 90.40251 41 ft 1 kts 144°
2026-04-23 07:05 23.84806 90.40261 39 ft 4 kts 143°
2026-04-23 07:05 23.84779 90.40281 41 ft 3 kts 146°
2026-04-23 07:06 23.84707 90.40313 41 ft 15 kts 203°
2026-04-23 07:06 23.84656 90.40194 41 ft 24 kts 307°
2026-04-23 07:06 23.84793 90.40083 41 ft 26 kts 324°
2026-04-23 07:06 23.84940 90.39966 41 ft 27 kts 324°
2026-04-23 07:07 23.85093 90.39845 41 ft 27 kts 324°
2026-04-23 07:07 23.85235 90.39732 40 ft 26 kts 324°
2026-04-23 07:07 23.85383 90.39614 41 ft 27 kts 324°
2026-04-23 07:07 23.85519 90.39506 41 ft 24 kts 323°
2026-04-23 07:08 23.85650 90.39403 41 ft 21 kts 324°
2026-04-23 07:08 23.85755 90.39305 41 ft 18 kts 290°
2026-04-23 07:08 23.85723 90.39201 40 ft 15 kts 232°
2026-04-23 07:08 23.85659 90.39108 41 ft 16 kts 233°
2026-04-23 07:09 23.85627 90.39060 41 ft 0 kts 233°
2026-04-23 07:10 23.85626 90.39060 39 ft 1 kts 233°
2026-04-23 07:10 23.85615 90.39043 41 ft 5 kts 233°
2026-04-23 07:11 23.85583 90.38997 41 ft 10 kts 233°
2026-04-23 07:11 23.85530 90.38919 40 ft 15 kts 228°
2026-04-23 07:11 23.85435 90.38908 41 ft 16 kts 146°
2026-04-23 07:12 23.85085 90.39184 41 ft 89 kts 144°
2026-04-23 07:12 23.84322 90.39788 51 ft 180 kts 144°
2026-04-23 07:12 23.83211 90.40688 800 ft 208 kts 143°
2026-04-23 07:12 23.81997 90.41678 1250 ft 229 kts 143°
2026-04-23 07:13 23.80664 90.42751 1643 ft 249 kts 148°
2026-04-23 07:13 23.79006 90.43508 2043 ft 269 kts 171°
2026-04-23 07:13 23.77184 90.43270 2770 ft 272 kts 203°
2026-04-23 07:13 23.75737 90.42011 3738 ft 268 kts 233°
2026-04-23 07:14 23.74909 90.40203 4628 ft 266 kts 247°
2026-04-23 07:14 23.74193 90.38329 5384 ft 269 kts 246°
2026-04-23 07:14 23.73414 90.36464 6122 ft 271 kts 245°
2026-04-23 07:14 23.72582 90.34611 6809 ft 273 kts 244°
2026-04-23 07:15 23.71713 90.32760 7511 ft 275 kts 244°
2026-04-23 07:15 23.70818 90.30899 8207 ft 278 kts 244°
2026-04-23 07:15 23.69907 90.29028 8919 ft 281 kts 244°
2026-04-23 07:15 23.69002 90.27194 9630 ft 285 kts 245°
2026-04-23 07:16 23.68025 90.25211 10158 ft 295 kts 245°
2026-04-23 07:16 23.67026 90.23182 10486 ft 311 kts 244°
2026-04-23 07:16 23.65977 90.21069 10835 ft 323 kts 244°
2026-04-23 07:16 23.64892 90.18887 11385 ft 329 kts 244°
2026-04-23 07:17 23.63793 90.16678 11980 ft 334 kts 244°
2026-04-23 07:17 23.62735 90.14413 12555 ft 337 kts 252°
2026-04-23 07:17 23.62313 90.11909 13110 ft 338 kts 271°
2026-04-23 07:17 23.62478 90.09348 13671 ft 341 kts 278°
2026-04-23 07:18 23.62789 90.06764 14182 ft 346 kts 279°
2026-04-23 07:18 23.63131 90.04155 14709 ft 350 kts 279°
2026-04-23 07:18 23.63479 90.01543 15234 ft 354 kts 279°
2026-04-23 07:18 23.63834 89.98882 15763 ft 357 kts 279°
2026-04-23 07:19 23.64197 89.96178 16294 ft 361 kts 279°
2026-04-23 07:19 23.64454 89.93477 16801 ft 366 kts 270°
2026-04-23 07:19 23.64007 89.90689 17311 ft 373 kts 251°
2026-04-23 07:19 23.63263 89.88997 17644 ft 376 kts 238°
2026-04-23 07:20 23.60876 89.86193 18301 ft 382 kts 220°
2026-04-23 07:20 23.59523 89.84967 18610 ft 384 kts 220°
2026-04-23 07:20 23.57450 89.83105 19087 ft 387 kts 220°
2026-04-23 07:20 23.55382 89.81210 19543 ft 389 kts 221°
2026-04-23 07:21 23.53320 89.79301 19754 ft 389 kts 221°
2026-04-23 07:21 23.50633 89.76794 19784 ft 381 kts 221°
2026-04-23 07:21 23.49278 89.75524 19783 ft 381 kts 221°
2026-04-23 07:21 23.46618 89.73029 19770 ft 380 kts 221°
2026-04-23 07:22 23.45263 89.71762 19767 ft 380 kts 221°
2026-04-23 07:22 23.43260 89.69892 19764 ft 380 kts 221°
2026-04-23 07:22 23.41252 89.68026 19758 ft 379 kts 221°
2026-04-23 07:22 23.39253 89.66160 19760 ft 379 kts 221°
2026-04-23 07:23 23.37372 89.64148 19751 ft 378 kts 233°
2026-04-23 07:23 23.35888 89.61799 19763 ft 377 kts 238°
2026-04-23 07:23 23.34505 89.59442 19764 ft 376 kts 239°
2026-04-23 07:23 23.33098 89.57043 19759 ft 377 kts 238°
2026-04-23 07:24 23.31673 89.54645 19761 ft 376 kts 238°
2026-04-23 07:24 23.30246 89.52258 19762 ft 376 kts 238°
2026-04-23 07:24 23.28830 89.49869 19757 ft 376 kts 238°
2026-04-23 07:24 23.27409 89.47482 19757 ft 376 kts 238°
2026-04-23 07:25 23.25990 89.45102 19755 ft 375 kts 238°
2026-04-23 07:25 23.24570 89.42723 19756 ft 375 kts 238°
2026-04-23 07:25 23.23142 89.40342 19753 ft 375 kts 238°
2026-04-23 07:25 23.21718 89.37969 19753 ft 375 kts 238°
2026-04-23 07:26 23.20293 89.35596 19747 ft 375 kts 238°
2026-04-23 07:26 23.18869 89.33225 19749 ft 375 kts 238°
2026-04-23 07:26 23.17441 89.30855 19751 ft 375 kts 238°
2026-04-23 07:26 23.16014 89.28477 19752 ft 375 kts 238°
2026-04-23 07:27 23.14588 89.26112 19751 ft 375 kts 238°
2026-04-23 07:27 23.13162 89.23742 19755 ft 375 kts 238°
2026-04-23 07:27 23.11749 89.21394 19652 ft 367 kts 238°
2026-04-23 07:27 23.10371 89.19102 19416 ft 357 kts 238°
2026-04-23 07:28 23.09031 89.16875 19177 ft 347 kts 238°
2026-04-23 07:28 23.07724 89.14700 18946 ft 345 kts 238°
2026-04-23 07:28 23.06424 89.12541 18719 ft 345 kts 238°
2026-04-23 07:28 23.05105 89.10363 18494 ft 344 kts 238°
2026-04-23 07:29 23.03792 89.08190 18261 ft 344 kts 237°
2026-04-23 07:29 23.02482 89.06019 18024 ft 344 kts 237°
2026-04-23 07:29 23.01175 89.03852 17662 ft 343 kts 237°
2026-04-23 07:29 22.99875 89.01695 17271 ft 340 kts 238°
2026-04-23 07:30 22.98576 88.99550 16859 ft 337 kts 238°
2026-04-23 07:30 22.97310 88.97457 16421 ft 335 kts 238°
2026-04-23 07:30 22.96025 88.95333 15914 ft 331 kts 238°
2026-04-23 07:30 22.94786 88.93293 15442 ft 328 kts 238°
2026-04-23 07:31 22.93533 88.91229 14971 ft 325 kts 238°
2026-04-23 07:31 22.92277 88.89197 14495 ft 323 kts 237°
2026-04-23 07:31 22.90991 88.87213 14041 ft 320 kts 237°
2026-04-23 07:31 22.89713 88.85256 13590 ft 317 kts 237°
2026-04-23 07:32 22.88426 88.83289 13078 ft 314 kts 237°
2026-04-23 07:32 22.87167 88.81364 12570 ft 310 kts 237°
2026-04-23 07:32 22.85944 88.79493 12083 ft 307 kts 237°
2026-04-23 07:32 22.85117 88.78226 11750 ft 305 kts 237°
2026-04-23 07:33 22.84990 88.78032 11700 ft 304 kts 237°
2026-04-23 07:33 22.83988 88.76438 11286 ft 300 kts 243°
2026-04-23 07:33 22.83251 88.74383 10795 ft 292 kts 264°
2026-04-23 07:33 22.83239 88.72221 10328 ft 285 kts 278°
2026-04-23 07:34 22.83513 88.70111 9845 ft 282 kts 281°
2026-04-23 07:34 22.83802 88.68019 9339 ft 279 kts 280°
2026-04-23 07:34 22.84070 88.65949 8815 ft 277 kts 279°
2026-04-23 07:34 22.84336 88.63876 8303 ft 277 kts 279°
2026-04-23 07:35 22.84648 88.61825 7795 ft 275 kts 287°
2026-04-23 07:35 22.85593 88.60056 7272 ft 275 kts 317°
2026-04-23 07:35 22.87261 88.59084 6776 ft 276 kts 348°
2026-04-23 07:35 22.89158 88.59162 6309 ft 276 kts 11°
2026-04-23 07:36 22.91014 88.59676 5835 ft 275 kts 12°
2026-04-23 07:36 22.92870 88.60150 5342 ft 274 kts 10°
2026-04-23 07:36 22.94745 88.60560 4845 ft 274 kts
2026-04-23 07:36 22.96621 88.60922 4348 ft 273 kts
2026-04-23 07:37 22.98493 88.61253 3848 ft 273 kts
2026-04-23 07:37 23.00370 88.61463 3342 ft 271 kts 354°
2026-04-23 07:37 23.02155 88.60903 2833 ft 268 kts 328°
2026-04-23 07:37 23.03517 88.59558 2398 ft 265 kts 302°
2026-04-23 07:38 23.04171 88.57730 2062 ft 258 kts 274°
2026-04-23 07:38 23.03976 88.55877 1969 ft 242 kts 246°
2026-04-23 07:38 23.03043 88.54445 1971 ft 233 kts 217°
2026-04-23 07:38 23.01637 88.53613 1994 ft 231 kts 201°
2026-04-23 07:39 23.00130 88.52986 1994 ft 232 kts 200°
2026-04-23 07:39 22.98618 88.52380 1997 ft 232 kts 200°
2026-04-23 07:39 22.97105 88.51777 2000 ft 230 kts 199°
2026-04-23 07:39 22.95597 88.51178 1991 ft 232 kts 200°
2026-04-23 07:40 22.94075 88.50576 1986 ft 231 kts 199°
2026-04-23 07:40 22.92623 88.49993 1973 ft 214 kts 199°
2026-04-23 07:40 22.91256 88.49439 1963 ft 211 kts 199°
2026-04-23 07:40 22.89884 88.48882 1980 ft 211 kts 200°
2026-04-23 07:41 22.88518 88.48325 1994 ft 210 kts 199°
2026-04-23 07:41 22.87205 88.47783 2029 ft 190 kts 200°
2026-04-23 07:41 22.85999 88.47388 1999 ft 172 kts 188°
2026-04-23 07:41 22.84864 88.47260 1976 ft 159 kts 188°
2026-04-23 07:42 22.83766 88.47053 1981 ft 160 kts 190°
2026-04-23 07:42 22.82669 88.46854 1978 ft 159 kts 188°
2026-04-23 07:42 22.81571 88.46683 1992 ft 160 kts 186°
2026-04-23 07:42 22.80466 88.46544 1991 ft 160 kts 186°
2026-04-23 07:43 22.79361 88.46412 1995 ft 160 kts 186°
2026-04-23 07:43 22.78250 88.46281 2005 ft 160 kts 186°
2026-04-23 07:43 22.77207 88.46158 1943 ft 141 kts 186°
2026-04-23 07:43 22.76232 88.46043 1781 ft 140 kts 186°
2026-04-23 07:44 22.75263 88.45929 1601 ft 140 kts 186°
2026-04-23 07:44 22.74291 88.45815 1408 ft 141 kts 186°
2026-04-23 07:44 22.73316 88.45700 1249 ft 141 kts 185°
2026-04-23 07:44 22.72350 88.45586 1059 ft 139 kts 186°
2026-04-23 07:45 22.71387 88.45473 870 ft 139 kts 185°
2026-04-23 07:45 22.70459 88.45364 713 ft 140 kts 185°
2026-04-23 07:45 22.69493 88.45251 568 ft 139 kts 185°
2026-04-23 07:45 22.68539 88.45138 385 ft 138 kts 186°
2026-04-23 07:46 22.67587 88.45028 153 ft 138 kts 186°
2026-04-23 07:46 22.66642 88.44920 45 ft 129 kts 185°
2026-04-23 07:46 22.65848 88.44827 35 ft 98 kts 186°
2026-04-23 07:46 22.65340 88.44767 34 ft 47 kts 186°
2026-04-23 07:47 22.65062 88.44727 31 ft 34 kts 194°
2026-04-23 07:47 22.64874 88.44641 31 ft 16 kts 214°
2026-04-23 07:47 22.64776 88.44569 31 ft 18 kts 214°
2026-04-23 07:47 22.64670 88.44492 33 ft 19 kts 208°
2026-04-23 07:48 22.64563 88.44469 34 ft 15 kts 186°
2026-04-23 07:48 22.64457 88.44456 34 ft 16 kts 186°
2026-04-23 07:48 22.64341 88.44442 34 ft 18 kts 186°
2026-04-23 07:48 22.64217 88.44428 35 ft 17 kts 186°
2026-04-23 07:49 22.64092 88.44413 35 ft 19 kts 190°
2026-04-23 07:49 22.64010 88.44313 34 ft 20 kts 257°
2026-04-23 07:49 22.64012 88.44177 34 ft 11 kts 276°
2026-04-23 07:49 22.64015 88.44120 34 ft 6 kts 269°
2026-04-23 07:50 22.64004 88.44072 34 ft 8 kts 248°
2026-04-23 07:50 22.63981 88.44014 34 ft 9 kts 246°
2026-04-23 07:50 22.63958 88.43957 34 ft 9 kts 257°
2026-04-23 07:50 22.63981 88.43928 34 ft 4 kts 335°
2026-04-23 07:51 22.64013 88.43913 34 ft 5 kts 338°
2026-04-23 07:51 22.64026 88.43907 34 ft 1 kts 338°
2026-04-23 07:51 22.64028 88.43907 34 ft 0 kts 338°